Hourly Data Report for February 01, 2015

All times are specified in Local Standard Time (LST). Add 1 hour to adjust for Daylight Saving Time where and when it is observed.

GERALDTON A
ONTARIO

49°46'58.090" N
86°55'50.050" W
348.40 m
6042716
71834
YGQ

Download Data

Hourly Data (February 2015)
Hourly Data Report for February 1, 2015
Temp Definition
°C
Dew Point Temp Definition
°C
Rel Hum Definition
%
Wind Dir Definition
10's deg

Wind Spd Definition
km/h
Visibility Definition
km
Stn Press Definition
kPa
Hmdx Definition


Wind Chill Definition


Weather Definition


TIME
00:00 -33.3 -36.5 73 30 6 24.1 98.75   -40 Clear
01:00 -30.3 -32.7 79 30 7 24.1 98.76   -38 Clear
02:00 -33.6 -36.2 77 22 6 24.1 98.78   -41 Clear
03:00 -35.2 -38.4 72 26 6 24.1 98.76   -42 Clear
04:00 -36.0 -39.2 72 21 7 24.1 98.79   -44 Clear
05:00 -36.3 -39.6 71 27 4 24.1 98.77   -41 Clear
06:00 -36.8 -40.2 71   0 24.1 98.77     Clear
07:00 -38.0 -41.6 69 26 6 24.1 98.79   -46 Clear
08:00 -37.0 -40.3 71 25 6 24.1 98.79   -45 Mainly Clear
09:00 -37.9 -41.5 69 26 4 24.1 98.76   -43 Mainly Clear
10:00 -32.4 -35.6 73 29 7 24.1 98.73   -40 Mainly Clear
11:00 -27.3 -30.5 74 22 7 24.1 98.69   -34 Mainly Clear
12:00 -24.4 -28.7 67 28 6 24.1 98.66   -30 Mainly Clear
13:00 -23.2 -28.9 60 31 11 24.1 98.56   -31 Mainly Clear
14:00 -22.2 -28.3 58 26 6 24.1 98.49   -28 Mainly Clear
15:00 -21.4 -27.5 58 28 7 24.1 98.39   -27 Clear
16:00 -20.8 -27.1 57 30 7 24.1 98.33   -27 Clear
17:00 -21.1 -26.8 60 29 6 24.1 98.24   -26 Clear
18:00 -23.3 -27.0 72 26 7 24.1 98.20   -29 Clear
19:00 -24.3 -27.7 73 27 9 24.1 98.18   -32 Clear
20:00 -26.4 -29.4 76 26 9 24.1 98.13   -34 Clear
21:00 -27.1 -30.0 76 26 9 24.1 98.08   -35 Clear
22:00 -28.6 -31.4 77 27 7 24.1 97.98   -36 Clear
23:00 -28.7 -31.5 77 26 7 24.1 97.92   -36 Clear

Notes on Data Quality.

Legend

  • E = Estimated
  • M = Missing
  • NA = Not Available
  • ‡ = Partner data that is not subject to review by the National Climate Archives
Date modified: